This demonstration page uses our WeatherBlox Daily Observations layout. Learn more.

Left ArrowRight Arrow

40.92501, -98.34201

Hourly Observations for August 27, 2022

Temp ( °F °C ) Dew Point ( °F °C ) Humidity (%) Winds ( mph kmh ) Pressure ( in mb ) Visibility ( mi km ) Precip ( " mm )
12:53 am 00:53 Clear 77 25 58 14.4 52 52 S 13 20 29.86 1011 10 16 0.00 0.00
1:53 am 01:53 Clear 76 24.4 58 14.4 54 54 S 14 22 29.85 1011 10 16 0.00 0.00
2:53 am 02:53 Clear 75 23.9 59 15 57 57 S 10 17 29.84 1011 10 16 0.00 0.00
3:53 am 03:53 Clear 75 23.9 59 15 57 57 S 10 17 29.85 1011 10 16 0.00 0.00
4:53 am 04:53 Clear 73 22.8 59 15 61 61 S 9 15 29.84 1011 10 16 0.00 0.00
5:53 am 05:53 Clear 73 22.8 59 15 61 61 S 10 17 29.84 1010 10 16 0.00 0.00
6:53 am 06:53 Mostly Clear 73 22.8 59 15 61 61 S 9 15 29.84 1011 10 16 0.00 0.00
7:53 am 07:53 Sunny 74 23.3 58 14.4 57 57 S 12 19 29.86 1011 10 16 0.00 0.00
8:53 am 08:53 Sunny 77 25 58 14.4 52 52 SSW 12 19 29.85 1011 10 16 0.00 0.00
9:53 am 09:53 Sunny 78 25.6 58 14.4 50 50 SSW 10 17 29.85 1011 10 16 0.00 0.00
10:53 am 10:53 Mostly Sunny 77 25 60 15.6 56 56 SSW 9 15 29.85 1011 10 16 0.00 0.00
11:53 am 11:53 Mostly Cloudy 77 25 61 16.1 58 58 SSW 14 22 29.83 1010 10 16 0.00 0.00
12:53 pm 12:53 Mostly Cloudy with Light Rain 72 22.2 65 18.3 79 79 SSW 12 19 29.85 1011 10 16 0.01 0.13
1:53 pm 13:53 Cloudy 70 21.1 63 17.2 78 78 SSW 15 24 29.83 1010 10 16 0.01 0.25
2:01 pm 14:01 Cloudy with Nearby Thunderstorms 70 21.1 61 16.1 73 73 S 20 31 29.79 1009 10 16 0.00 0.00
2:53 pm 14:53 Partly Cloudy with Light Rain 68 20 63 17 83 83 SSE 9 15 29.77 1008 3 5 0.00 0.00
2:54 pm 14:54 Cloudy with Light Rain 68 20 63 17 83 83 SSE 9 15 29.77 1008 3 5 0.00 0.00
3:53 pm 15:53 Mostly Cloudy 73 23 66 19 78 78 SSE 12 19 29.73 1007 10 16 0.00 0.00
4:53 pm 16:53 Mostly Sunny 76 24.4 66 18.9 71 71 S 16 26 29.74 1007 10 16 0.00 0.00
5:53 pm 17:53 Mostly Cloudy 77 25 66 18.9 69 69 SSE 13 20 29.72 1007 10 16 0.00 0.00
6:53 pm 18:53 Mostly Sunny 77 25 65 18.3 66 66 SSE 16 26 29.70 1006 10 16 0.00 0.00
7:53 pm 19:53 Mostly Sunny 76 24.4 65 18.3 69 69 SSE 13 20 29.69 1005 10 16 0.00 0.00
8:53 pm 20:53 Clear 74 23.3 64 17.8 71 71 S 13 20 29.69 1005 10 16 0.00 0.00
9:53 pm 21:53 Clear 73 22.8 63 17.2 71 71 S 14 22 29.70 1006 10 16 0.00 0.00
10:53 pm 22:53 Clear 72 22.2 64 17.8 76 76 S 14 22 29.70 1006 10 16 0.00 0.00
11:53 pm 23:53 Clear 71 21.7 64 17.8 79 79 S 14 22 29.69 1005 10 16 0.00 0.00

Powered by AerisWeather